www.pogodaiklimat.ru
ПОГОДА в Кеньебе
Время
(UTC), дата
09 22.09
12 22.09
15 22.09
18 22.09
21 22.09
00 23.09
03 23.09
06 23.09
09 23.09
12 23.09
15 23.09
18 23.09
21 23.09
00 24.09
03 24.09
06 24.09
09 24.09
12 24.09
15 24.09
18 24.09
21 24.09
00 25.09
03 25.09
06 25.09
09 25.09
12 25.09
15 25.09
18 25.09
21 25.09
00 26.09
03 26.09
06 26.09
09 26.09
12 26.09
15 26.09
18 26.09
21 26.09
00 27.09
03 27.09
06 27.09
09 27.09
12 27.09
15 27.09
18 27.09
21 27.09
00 28.09
03 28.09
06 28.09
09 28.09
12 28.09
15 28.09
18 28.09
21 28.09
00 29.09
03 29.09
06 29.09
Ветер
(напр.,м/с)
Видим. Явления Облачность Т
(С)
Тd
(С)
f
(%)
Тe
(С)
Тes
(С)
Комфортность P
(гПа)
Po
(гПа)
Тmin
(С)
Tmax
(С)
R
(мм)
R24
(мм)
S
(см)
ЮВ 1 10 км 8/4 300 м
[St Ci fib]
+26.0 +24.1 89 +36 +40 очень
душно
1013.0 998.0
штиль 0 10 км 8/5 600 м
[Sc Ci fib]
+30.4 +24.8 72 +43 +55 опасность
перегрева
1012.4 997.5
СЗ 1 10 км 6/4 600 м
[Cu Sc Ci fib]
+33.3 +25.4 63 +48 +57 опасность
перегрева
1010.3 995.5
штиль 0 10 км 8/5 600 м
[Cu med, cong Ci fib]
+32.4 +27.1 74 +51 +51 опасность
перегрева
1010.2 995.3 +35.4
штиль 0 10 км 8/4 600 м
[Cu med, cong Ac trans Ci fib]
+28.6 +26.5 88 +44 +44 опасность
перегрева
1010.6 995.7
штиль 0 10 км 8/3 600 м
[Sc diur, vesp Ci fib]
+26.5 +25.7 95 +39 +39 очень
душно
1012.1 997.2
штиль 0 10 км 8/4 600 м
[Sc]
+25.8 +25.4 98 +38 +38 очень
душно
1011.3 996.5
штиль 0 10 км 9/3 600 м
[Sc Ac As]
+25.0 +24.9 99 +35 +35 очень
душно
1011.5 996.6 +25.0
штиль 0 10 км 5/4 600 м
[Sc Ci sp]
+27.4 +25.3 88 +40 +45 очень
душно
1012.4 997.6
штиль 0 10 км 6/6 600 м
[Cu med, cong]
+30.5 +25.6 75 +45 +56 опасность
перегрева
1012.3 997.6
штиль 0 10 км 6/6 600 м
[Cb calv]
+32.7 +25.5 66 +47 +55 опасность
перегрева
1009.1 994.4
штиль 0 10 км гроза без осадков 10/4 300 м
[Cb cap As op]
+24.8 +24.1 96 +34 +34 очень
душно
1010.7 995.8 +33.6 1
В 2 10 км гроза, ливневой дождь 10/6 300 м
[Cb cap As op]
+24.8 +22.1 85 +32 +32 очень
душно
1014.1 999.2
штиль 0 10 км в посл. час гроза {дождь} 10/5 300 м
[St As op]
+23.2 +22.9 98 +32 +32 очень
душно
1013.4 998.6 3
штиль 0 10 км 10/0 300 м
[Ac cuf Ci sp]
+22.8 +22.8 100 +31 +31 очень
душно
1009.5 994.8
штиль 0 10 км 9/3 600 м
[Sc diur, vesp Ac As]
+23.0 +22.4 96 +31 +31 очень
душно
1010.6 995.7 +22.7 4 4
штиль 0 10 км 8/0
[Ac As]
+26.0 +23.6 87 +35 +39 очень
душно
1012.4 997.3
штиль 0 10 км 8/5 600 м
[Cu med, cong Ac As]
+30.7 +24.8 71 +44 +52 опасность
перегрева
1012.0 997.0
штиль 0 10 км 8/5 600 м
[Cu med, cong Ac As]
+33.3 +25.3 63 +48 +53 опасность
перегрева
1009.7 994.8
С 3 10 км гроза без осадков 9/6 600 м
[Cb cap As op]
+26.9 +24.2 85 +37 +38 очень
душно
1010.6 995.6 +34.6
штиль 0 10 км гроза без осадков 9/5 600 м
[Cb cap As op]
+25.6 +25.5 99 +37 +37 очень
душно
1011.5 996.5
штиль 0 10 км {гроза, дождь} 9/4 600 м
[Sc diur, vesp As trans]
+24.7 +24.7 100 +35 +35 очень
душно
1012.9 998.0 3
штиль 0 10 км гроза без осадков 8/4 300 м
[Cb cap Ci fib]
+24.5 +24.5 100 +34 +34 очень
душно
1012.2 997.3
штиль 0 10 км в посл. час гроза 10/6 300 м
[St As op]
+24.3 +24.3 100 +34 +34 очень
душно
1013.0 998.0 +24.2 3 3
С 1 10 км 8/3 600 м
[Sc Ci fib]
+27.2 +25.4 90 +40 +44 очень
душно
1013.5 998.5
штиль 0 10 км 8/5 600 м
[Sc Ci fib]
+32.3 +26.4 71 +49 +60 опасность
перегрева
1013.0 998.0
штиль 0 10 км 8/5 600 м
[Cu med, cong Ci fib]
+34.5 +25.2 59 +49 +57 опасность
перегрева
1010.0 995.2
СЗ 1 10 км 9/6 600 м
[Cu med, cong Ci sp]
+32.0 +26.2 71 +48 +48 опасность
перегрева
1009.9 995.0 +36.2
ЮВ 9 6000 м гроза, ливневой дождь 10/4 600 м
[Cb cap Ac cuf]
+28.2 +25.0 83 +41 +41 опасность
перегрева
1013.0 998.1
штиль 0 10 км гроза без осадков 10/4 600 м
[Cb cap Ac As]
+22.6 +21.7 95 +30 +30 очень
душно
1012.1 997.2 10
З 1 10 км гроза без осадков 10/4 600 м
[Cb cap Ac As]
+24.4 +21.7 85 +31 +31 очень
душно
1011.9 997.0
штиль 0 10 км в посл. час гроза {дождь} 9/4 600 м
[Sc diur, vesp Ac und Ci sp]
+22.8 +22.4 98 +31 +31 очень
душно
1010.1 995.2 +22.6 14 14
штиль 0 10 км 6/4 600 м
[Sc Ac As Ci fib]
+24.8 +23.1 90 +33 +37 очень
душно
1011.9 997.1
штиль 0 10 км гроза без осадков 8/3 600 м
[Cb cap Ac As]
+29.5 +24.0 72 +41 +50 опасность
перегрева
1011.6 996.7
штиль 0 10 км {гроза} 5/3 600 м
[Sc Ac As]
+32.0 +26.1 71 +48 +58 опасность
перегрева
1008.7 994.0
штиль 0 10 км {гроза} 5/3 600 м
[Sc Ci sp]
+30.5 +26.1 77 +46 +46 опасность
перегрева
1008.0 993.2 +33.0
штиль 0 10 км 5/3 600 м
[Sc Ac trans Ci sp]
+27.7 +26.2 92 +42 +42 опасность
перегрева
1010.9 996.1
штиль 0 10 км 9/1 600 м
[Sc Ac As]
+26.5 +25.4 94 +39 +39 очень
душно
1010.4 995.7
штиль 0 10 км 6/1 600 м
[Sc Ac As]
+25.6 +25.3 98 +37 +37 очень
душно
1009.2 994.5
штиль 0 10 км 6/1 600 м
[Sc Ac As]
+25.0 +24.3 96 +35 +35 очень
душно
1009.0 994.3 +24.9
штиль 0 10 км 4/0
[Ci fib]
+28.0 +25.2 85 +41 +48 опасность
перегрева
1009.7 994.8
штиль 0 10 км 6/6 600 м
[Cu med, cong]
+33.3 +25.7 64 +48 +59 опасность
перегрева
1008.9 994.1
штиль 0 10 км 6/6 600 м
[Cu med, cong]
+34.7 +25.9 60 +50 +57 опасность
перегрева
1006.3 991.6
штиль 0 10 км 6/4 600 м
[Cb calv Ci fib]
+32.7 +26.5 70 +50 +50 опасность
перегрева
1006.7 991.9 +35.8
штиль 0 10 км гроза без осадков 9/5 600 м
[Cb cap As trans]
+29.3 +27.0 87 +46 +46 опасность
перегрева
1008.4 993.6
штиль 0 10 км гроза без осадков 10/8 600 м
[Cb cap As op]
+23.2 +22.2 94 +32 +32 очень
душно
1011.1 996.2 8
СЗ 2 10 км гроза без осадков 10/6 600 м
[Cb cap As op]
+22.7 +22.6 99 +31 +31 очень
душно
1009.9 995.1
штиль 0 10 км в посл. час гроза {дождь} 10/4 600 м
[Sc diur, vesp As trans]
+22.0 +22.0 100 +29 +29 очень
душно
1009.9 995.0 +22.0 32
штиль 0 10 км 8/3 600 м
[Sc Ac trans Ci fib]
+24.7 +21.6 83 +32 +35 очень
душно
1012.2 997.2
Ю 1 10 км 8/3 600 м
[Sc Ac trans Ci fib]
+30.3 +24.8 72 +43 +53 опасность
перегрева
1011.7 996.7
СЗ 1 10 км 8/4 600 м
[Sc Ac trans Ci fib]
+32.8 +25.8 67 +48 +55 опасность
перегрева
1009.3 994.4
В 3 10 км гроза без осадков 8/4 600 м
[Cb cap Ci fib]
+32.0 +26.5 73 +49 +49 опасность
перегрева
1009.2 994.3 +34.5
штиль 0 10 км гроза без осадков 10/4 600 м
[Cb cap Ac As]
+24.4 +23.8 96 +33 +33 очень
душно
1011.7 996.6
штиль 0 10 км в посл. час гроза {дождь} 8/5 600 м
[Sc Ac cuf Ci fib]
+24.0 +23.4 96 +32 +32 очень
душно
1011.8 996.8 0.7
штиль 0 10 км 8/3 600 м
[Sc Ci fib]
+23.3 +23.3 100 +33 +33 очень
душно
1010.2 995.3
штиль 0 10 км 9/3 600 м
[Sc Ci fib]
+23.0 +23.0 100 +32 +32 очень
душно
1010.9 996.0 +23.0 0.7 0.7
Местоположение метеостанции Кеньеб (Мали): широта 12.85 долгота -11.23 высота над уровнем моря 132 м.
В архиве по умолчанию представлена погода в Кеньебе за последнюю неделю. Архивные данные за месяц целиком и за предыдущие месяцы, начиная с января 2011 года, Вы можете получить, выбрав интересующий диапазон дат из раскрывающегося списка и нажав кнопку "Найти!".
*Определитесь, кто Вы:
Внимание! Время в таблицах - всемирное. Для получения местного времени необходимо прибавить поправку, которая равна 0 ч.
Смотрите также архив погоды в соседних городах и на ближайших метеорологических станциях:
Партнеры нашего сайта:      
Пояснения к столбцам:
  • Ветер - указаны скорость ветра в м/с - средняя за 10 мин, порывы в срок и между сроками (в фигурных скобках) и направление, откуда дует ветер: С - северный,
  • СВ - северо-восточный, В - восточный, ЮВ - юго-восточный, Ю - южный, ЮЗ - юго-западный, З - западный, СЗ - северо-западный.
  • Видимость - горизонтальная дальность видимости в метрах или километрах. При видимости от 1 до 10 км при отсутствии осадков обычно наблюдается дымка, при ухудшении видимости до 1 км и менее - туман. В сухую погоду видимость может ухудшаться дымом, пылью или мглою.
  • Явления - указаны атмосферные явления, наблюдавшиеся в срок или в последний час перед сроком; фигурными скобками обозначены явления, наблюдавшиеся между сроками (за 1-3 часа до срока); квадратными скобками обозначены град или гололедные отложения с указанием их диаметра в мм.
  • Облачность - указаны через наклонную черту общая и нижняя облачность в баллах и высота нижней границы облаков в метрах; квадратными скобками обозначены формы облаков: Ci - перистые, Cs - перисто-слоистые, Cc - перисто-кучевые, Ac - высококучевые, As - высокослоистые, Sc - слоисто-кучевые, Ns - слоисто-дождевые, Cu - кучевые, Cb - кучево-дождевые. Подробнее классификацию облаков см. в Атласе облаков (PDF).
  • T - Температура воздуха - температура, измеренная на высоте 2 м над землей.
  • Td - Температура точки росы - температура, при понижении до которой содержащийся в воздухе водяной пар достигнет насыщения.
  • f - Относительная влажность воздуха - влажноcть воздуха, измеренная на высоте 2 м над землей.
  • Te - Эффективная температура - температура, которую ощущает одетый по сезону человек в тени. Характеристика душности погоды. При расчете учитывается влияние влажности воздуха и скорости ветра на теплоощущения человека.
  • Tes - Эффективная температура на солнце - температура, которую ощущает человек, с поправкой на солнечный нагрев. Характеристика знойности погоды. Зависит от высоты солнца над горизонтом, облачности и скорости ветра. Ночью, в пасмурную погоду, а также при ветре 12 м/с и более поправка равна нулю.
  • P - Атмосферное давление - приведенное к уровню моря атмосферное давление.
  • Po - Атмосферное давление - измеренное на уровне метеостанции атмосферное давление.
  • Tmin - Минимальная температура - минимум температуры воздуха на высоте 2 м над землей.
  • Tmax - Максимальная температура - максимум температуры воздуха на высоте 2 м над землей.
  • R - Количество осадков - Количество выпавших осадков за период времени, мм. При наведении курсора мыши на число - период времени, за который выпало указанное количество осадков.
  • R24 - Количество осадков - Количество выпавших осадков за 24 часа, мм.
  • S - Снежный покров - Высота снежного покрова, см. При наведении курсора мыши на число - состояние снежного покрова и степень покрытия местности в баллах.